{"data":{"norad_id":59577,"intl_designator":"2024-076P","name":"STARLINK-31692","alt_names":[],"object_type":"PAYLOAD","status":"ACTIVE","operator":null,"country":"US","launch_date":"2024-04-23","launch_site_code":"AFETR","launch_vehicle":null,"mission":null,"orbit_class":"UNKNOWN","rcs_meters":null,"size_class":null,"mass_kg":null,"dimensions":null,"purposes":["comms"],"wikipedia_slug":null,"has_3d_model":false,"image_url":null,"decayed_at":null,"tle_current":{"epoch":"2026-05-25T02:35:03.958080Z","epoch_age_seconds":65037,"freshness":"FRESH","line1":"1 59577U 24076P   26145.10768470  .00027022  00000+0  90791-3 0  9994","line2":"2 59577  43.0080 297.0711 0004354 335.3126  24.7518 15.30327817118190","mean_motion":15.30327817,"eccentricity":0.0004354,"inclination_deg":43.008,"raan_deg":297.0711,"arg_perigee_deg":335.3126,"mean_anomaly_deg":24.7518,"bstar":0.00090791,"rev_number":11819,"period_min":94.097485780721,"perigee_km":471.84967412244,"apogee_km":477.81724079679,"semimajor_km":6852.9704574596,"source":"CELESTRAK","updated_at":"2026-05-25T13:38:18.987235Z"}}}